TimeEDT,TemperatureF,Dew PointF,Humidity,Sea Level PressureIn,VisibilityMPH,Wind Direction,Wind SpeedMPH,Gust SpeedMPH,PrecipitationIn,Events,Conditions,WindDirDegrees,DateUTC
12:51 AM,62.1,48.0,60,29.92,-9999.0,WSW,11.5,19.6,N/A,,Unknown,240,2013-10-09 04:51:00
1:51 AM,62.1,46.9,58,29.94,-9999.0,WSW,10.4,18.4,N/A,,Unknown,240,2013-10-09 05:51:00
2:51 AM,62.1,46.0,56,29.95,-9999.0,WSW,11.5,18.4,N/A,,Unknown,240,2013-10-09 06:51:00
3:51 AM,61.0,46.9,60,29.95,-9999.0,WSW,11.5,21.9,N/A,,Unknown,240,2013-10-09 07:51:00
4:51 AM,59.0,46.0,62,29.96,-9999.0,WSW,10.4,18.4,N/A,,Unknown,240,2013-10-09 08:51:00
5:51 AM,60.1,45.0,57,29.96,-9999.0,WSW,9.2,18.4,N/A,,Unknown,250,2013-10-09 09:51:00
6:51 AM,59.0,45.0,60,29.96,-9999.0,WSW,9.2,17.3,N/A,,Unknown,250,2013-10-09 10:51:00
7:51 AM,59.0,45.0,60,29.97,-9999.0,WSW,10.4,18.4,N/A,,Unknown,250,2013-10-09 11:51:00
8:51 AM,59.0,46.0,62,29.98,-9999.0,WSW,9.2,-,N/A,,Unknown,240,2013-10-09 12:51:00
9:51 AM,62.1,46.9,58,29.99,-9999.0,WSW,8.1,-,N/A,,Unknown,250,2013-10-09 13:51:00
10:51 AM,64.0,46.9,54,30.00,-9999.0,WSW,8.1,-,N/A,,Unknown,250,2013-10-09 14:51:00
11:51 AM,66.0,48.9,54,30.01,-9999.0,WSW,5.8,-,N/A,,Unknown,240,2013-10-09 15:51:00
12:51 PM,68.0,50.0,52,30.02,-9999.0,SW,9.2,-,N/A,,Unknown,220,2013-10-09 16:51:00
1:51 PM,68.0,48.9,50,30.01,-9999.0,Variable,4.6,-,N/A,,Unknown,0,2013-10-09 17:51:00
2:51 PM,69.1,48.9,49,30.01,-9999.0,Calm,Calm,-,N/A,,Unknown,0,2013-10-09 18:51:00
3:51 PM,73.0,48.9,42,30.00,-9999.0,Variable,5.8,-,N/A,,Unknown,0,2013-10-09 19:51:00
4:51 PM,73.0,46.9,39,29.99,-9999.0,WSW,10.4,21.9,N/A,,Unknown,240,2013-10-09 20:51:00
5:51 PM,70.0,48.0,46,30.00,-9999.0,WSW,5.8,-,N/A,,Unknown,250,2013-10-09 21:51:00
6:51 PM,60.1,48.0,64,30.04,-9999.0,Calm,Calm,-,N/A,,Unknown,0,2013-10-09 22:51:00
7:51 PM,57.0,50.0,77,30.03,-9999.0,WSW,4.6,-,N/A,,Unknown,250,2013-10-09 23:51:00
8:51 PM,54.0,50.0,86,30.04,-9999.0,WSW,4.6,-,N/A,,Unknown,240,2013-10-10 00:51:00
9:51 PM,57.9,48.9,72,30.04,-9999.0,West,4.6,-,N/A,,Unknown,260,2013-10-10 01:51:00
10:51 PM,61.0,48.9,64,30.04,-9999.0,WSW,5.8,-,N/A,,Unknown,250,2013-10-10 02:51:00
11:51 PM,61.0,48.9,64,30.05,-9999.0,WSW,6.9,-,N/A,,Unknown,250,2013-10-10 03:51:00